Date String (YYYY-MM-DD hh:mm:ss) UTC,Instrument flags,Ambient pressure (hPa),Sample flow (lpm),Bypass flow (lpm),Sample temperature (°C),Ambient temperature (°C),ASC tube jacket temperature (°C),LED temperature (°C),Box temperature (°C),Sample RH (%),Span deviation,Mass concentration (μg/m³),Mass concentration (μg/m³),Mass concentration (μg/m³)
DateTimeUTC,F1_M11,P_M11,Q1_M11,Q2_M11,T1_M11,T2_M11,T3_M11,T4_M11,T5_M11,U1_M11,ZSPAN_M11,X0_M11,X2_M11,X1_M11
2022-07-26 04:00:00,,0825.6,5.00,0.00,29.5,27.6,00.0,38.3,31.3,29.6,0000.0,0015.87,0008.15,0007.32
2022-07-26 04:01:00,,0825.7,5.00,0.00,29.5,27.8,00.0,38.3,31.4,29.3,0000.0,0015.96,0008.23,0007.34
2022-07-26 04:02:00,,0825.7,5.00,0.00,29.5,27.9,00.0,38.3,31.4,28.9,0000.0,0015.71,0008.33,0007.40
2022-07-26 04:03:00,,0825.7,5.00,0.00,29.6,28.1,00.0,38.3,31.4,28.5,0000.0,0014.96,0008.36,0007.44
2022-07-26 04:04:00,,0825.7,5.00,0.00,29.6,28.2,00.0,38.3,31.5,30.7,0000.0,0014.88,0008.31,0007.41
2022-07-26 04:05:00,,0825.6,5.00,0.00,29.6,28.3,00.0,38.3,31.5,32.0,0000.0,0014.21,0008.19,0007.28
2022-07-26 04:06:00,,0825.7,4.99,0.00,29.6,28.4,00.0,38.3,31.6,30.9,0000.0,0013.82,0008.08,0007.19
2022-07-26 04:07:00,,0825.7,5.00,0.00,29.7,28.5,00.0,38.3,31.6,31.6,0000.0,0013.86,0008.00,0007.10
2022-07-26 04:08:00,,0825.7,5.00,0.00,29.7,28.6,00.0,38.4,31.7,30.6,0000.0,0013.90,0007.96,0007.01
2022-07-26 04:09:00,,0825.7,5.00,0.00,29.7,28.5,00.0,38.4,31.7,29.3,0000.0,0013.63,0007.95,0007.00
2022-07-26 04:10:00,,0825.7,5.00,0.00,29.7,27.8,00.0,38.3,31.6,29.8,0000.0,0013.64,0007.94,0007.00
2022-07-26 04:11:00,,0825.7,5.01,0.00,29.7,27.1,00.0,38.3,31.4,29.1,0000.0,0013.26,0007.95,0007.01
2022-07-26 04:12:00,,0825.7,4.99,0.00,29.6,26.9,00.0,38.3,31.3,28.8,0000.0,0013.16,0007.91,0007.01
2022-07-26 04:13:00,,0825.7,5.01,0.00,29.5,27.0,00.0,38.2,31.2,28.8,0000.0,0012.88,0007.90,0007.01
2022-07-26 04:14:00,,0825.7,4.99,0.00,29.5,27.1,00.0,38.2,31.2,28.9,0000.0,0013.35,0007.91,0007.00
2022-07-26 04:15:00,,0825.6,5.00,0.00,29.5,27.3,00.0,38.2,31.2,28.3,0000.0,0013.52,0007.97,0007.07
2022-07-26 04:16:00,,0825.6,5.00,0.00,29.5,27.5,00.0,38.2,31.3,28.2,0000.0,0013.67,0008.09,0007.21
2022-07-26 04:17:00,,0825.7,5.01,0.00,29.5,27.7,00.0,38.2,31.3,28.8,0000.0,0014.25,0008.22,0007.34
2022-07-26 04:18:00,,0825.7,5.00,0.00,29.5,27.9,00.0,38.2,31.4,28.6,0000.0,0014.67,0008.36,0007.47
2022-07-26 04:19:00,,0825.7,5.01,0.00,29.5,28.0,00.0,38.2,31.4,28.3,0000.0,0015.06,0008.48,0007.61
2022-07-26 04:20:00,,0825.7,4.99,0.00,29.5,28.2,00.0,38.2,31.4,28.2,0000.0,0015.29,0008.52,0007.68
2022-07-26 04:21:00,,0825.6,4.99,0.00,29.6,28.3,00.0,38.2,31.5,28.1,0000.0,0016.06,0008.62,0007.77
2022-07-26 04:22:00,,0825.7,5.01,0.00,29.6,28.4,00.0,38.3,31.5,27.0,0000.0,0015.94,0008.67,0007.84
2022-07-26 04:23:00,,0825.6,5.00,0.00,29.6,28.5,00.0,38.3,31.6,27.1,0000.0,0015.06,0008.71,0007.89
2022-07-26 04:24:00,,0825.6,5.01,0.00,29.7,28.6,00.0,38.3,31.6,26.9,0000.0,0015.02,0008.74,0007.94
2022-07-26 04:25:00,,0825.6,5.00,0.00,29.7,28.5,00.0,38.3,31.6,26.7,0000.0,0014.63,0008.78,0007.99
2022-07-26 04:26:00,,0825.6,5.01,0.00,29.7,27.7,00.0,38.3,31.5,26.7,0000.0,0014.70,0008.81,0008.02
2022-07-26 04:27:00,,0825.6,5.00,0.00,29.6,27.2,00.0,38.2,31.4,26.8,0000.0,0014.76,0008.81,0008.04
2022-07-26 04:28:00,,0825.6,5.01,0.00,29.5,27.0,00.0,38.2,31.3,26.8,0000.0,0014.54,0008.87,0008.07
2022-07-26 04:29:00,,0825.6,4.99,0.00,29.5,27.0,00.0,38.2,31.2,26.9,0000.0,0014.25,0008.90,0008.09
2022-07-26 04:30:00,,0825.6,5.00,0.00,29.4,27.1,00.0,38.2,31.2,27.0,0000.0,0014.85,0008.91,0008.11
2022-07-26 04:31:00,,0825.6,5.01,0.00,29.4,27.3,00.0,38.2,31.2,27.1,0000.0,0016.16,0008.94,0008.13
2022-07-26 04:32:00,,0825.6,5.00,0.00,29.4,27.5,00.0,38.2,31.2,27.0,0000.0,0015.99,0008.91,0008.12
2022-07-26 04:33:00,,0825.6,5.01,0.00,29.4,27.7,00.0,38.2,31.2,27.0,0000.0,0017.42,0008.93,0008.13
2022-07-26 04:34:00,,0825.6,5.00,0.00,29.4,27.8,00.0,38.2,31.3,27.2,0000.0,0017.78,0008.93,0008.13
2022-07-26 04:35:00,,0825.6,5.01,0.00,29.4,28.0,00.0,38.2,31.3,27.2,0000.0,0017.77,0008.93,0008.14
2022-07-26 04:36:00,,0825.6,5.01,0.00,29.5,28.1,00.0,38.2,31.4,27.8,0000.0,0017.90,0008.91,0008.14
2022-07-26 04:37:00,,0825.7,5.00,0.00,29.5,28.2,00.0,38.2,31.4,28.1,0000.0,0018.87,0008.95,0008.15
2022-07-26 04:38:00,,0825.6,5.01,0.00,29.5,28.3,00.0,38.2,31.4,28.2,0000.0,0019.21,0009.00,0008.16
2022-07-26 04:39:00,,0825.7,4.99,0.00,29.6,28.4,00.0,38.2,31.5,27.5,0000.0,0019.10,0008.99,0008.17
2022-07-26 04:40:00,,0825.6,5.00,0.00,29.6,28.5,00.0,38.3,31.6,28.0,0000.0,0019.12,0009.03,0008.18
2022-07-26 04:41:00,,0825.6,5.00,0.00,29.6,28.6,00.0,38.3,31.6,27.7,0000.0,0018.26,0009.02,0008.17
2022-07-26 04:42:00,,0825.6,4.99,0.00,29.6,28.2,00.0,38.2,31.5,27.5,0000.0,0016.99,0009.05,0008.16
2022-07-26 04:43:00,,0825.6,5.01,0.00,29.6,27.4,00.0,38.2,31.4,27.3,0000.0,0016.66,0009.08,0008.15
2022-07-26 04:44:00,,0825.6,5.00,0.00,29.5,26.9,00.0,38.2,31.3,27.5,0000.0,0015.42,0009.11,0008.16
2022-07-26 04:45:00,,0825.6,5.00,0.00,29.4,26.9,00.0,38.1,31.1,27.7,0000.0,0015.11,0009.11,0008.16
2022-07-26 04:46:00,,0825.6,5.00,0.00,29.4,26.9,00.0,38.1,31.1,27.6,0000.0,0015.09,0009.11,0008.15
2022-07-26 04:47:00,,0825.6,5.01,0.00,29.3,27.1,00.0,38.1,31.1,27.8,0000.0,0014.91,0009.13,0008.14
2022-07-26 04:48:00,,0825.6,5.00,0.00,29.3,27.3,00.0,38.1,31.1,27.9,0000.0,0013.78,0009.10,0008.15
2022-07-26 04:49:00,,0825.6,5.01,0.00,29.3,27.5,00.0,38.1,31.2,27.2,0000.0,0013.25,0009.10,0008.15
2022-07-26 04:50:00,,0825.6,5.01,0.00,29.3,27.7,00.0,38.1,31.2,27.2,0000.0,0013.18,0009.08,0008.17
2022-07-26 04:51:00,,0825.6,5.00,0.00,29.4,27.8,00.0,38.1,31.2,27.0,0000.0,0013.22,0009.08,0008.19
2022-07-26 04:52:00,,0825.6,5.00,0.00,29.4,28.0,00.0,38.1,31.3,26.9,0000.0,0013.24,0009.12,0008.22
2022-07-26 04:53:00,,0825.6,5.01,0.00,29.4,28.1,00.0,38.1,31.3,27.8,0000.0,0013.13,0009.10,0008.24
2022-07-26 04:54:00,,0825.6,5.00,0.00,29.4,28.2,00.0,38.1,31.4,26.8,0000.0,0013.24,0009.10,0008.26
2022-07-26 04:55:00,,0825.6,5.01,0.00,29.5,28.3,00.0,38.2,31.4,27.1,0000.0,0013.12,0009.09,0008.28
2022-07-26 04:56:00,,0825.6,5.00,0.00,29.5,28.4,00.0,38.2,31.4,27.4,0000.0,0013.19,0009.14,0008.31
2022-07-26 04:57:00,,0825.6,4.99,0.00,29.5,28.5,00.0,38.2,31.5,26.8,0000.0,0013.37,0009.18,0008.32
2022-07-26 04:58:00,,0825.6,5.02,0.00,29.6,28.6,00.0,38.2,31.5,26.3,0000.0,0013.73,0009.21,0008.34
2022-07-26 04:59:00,,0825.6,4.99,0.00,29.6,28.6,00.0,38.3,31.6,25.8,0000.0,0013.84,0009.24,0008.33
